Flag for Monaco Weather past 2 weeks in Monaco, Monaco

Now
77 °F

Passing clouds.


Feels Like: 79 °F
Forecast: 66 / 79 °F
Wind: 12 mph from East

Location: Nice Airport

Current Time: Jul 31, 2014 at 12:17:42 PM

Latest Report: Jul 31, 2014 at 12:00 PM


Visibility: N/A

Pressure: 29.83 "Hg

Humidity: 74%

Dew point: 68 °F

Location of MonacoLocation

Historic Weather in Monaco — Graph

°F

Monaco temperature yesterday

Maximum temperature yesterday: 79 °F (at 4:00 PM)
Minimum temperature yesterday: 63 °F (at 6:30 AM)
Average temperature yesterday: 72 °F

Past Weeks' High & Low Weather Summary

 TemperatureHumidityPressure
High82 °F (Jul 20, 12:00 PM)89% (Jul 19, 12:30 AM)30.09 "Hg (Jul 19, 12:30 AM)
Low63 °F (Jul 30, 6:30 AM)39% (Jul 17, 9:30 AM)29.65 "Hg (Jul 30, 7:00 AM)
Average75 °F68%29.87 "Hg
* Reported Jul 16 11:00 AM — Jul 31 11:00 AM, Monaco, Weather by CustomWeather, © 2014

Note: Actual official high and low records may vary slightly from our data, if they occured in-between our weather recording intervals... More about our weather records

Advertising

Monaco weather history for previous 24 hours

 ConditionsComfort  
Time TempWeatherWind HumidityBarometerVisibility
11:00 AM
Jul 31
77 °FPassing clouds.9 mph69%29.80 "HgN/A
10:30 AM77 °FPassing clouds.7 mph69%29.80 "HgN/A
10:00 AM75 °FPassing clouds.5 mph69%29.80 "HgN/A
9:30 AM75 °FSunny.3 mph65%29.80 "Hg10 mi
9:00 AM75 °FSunny.3 mph65%29.80 "Hg10 mi
8:30 AM75 °FPassing clouds.3 mph57%29.80 "HgN/A
8:00 AM73 °FSunny.3 mph61%29.80 "Hg10 mi
7:30 AM72 °FSunny.6 mph61%29.80 "Hg10 mi
7:00 AM70 °FClear.6 mph64%29.80 "Hg10 mi
6:30 AM70 °FClear.8 mph64%29.77 "Hg10 mi
6:00 AM70 °FClear.6 mph64%29.77 "Hg10 mi
5:22 AM72 °FClear.6 mph57%29.77 "Hg10 mi
4:30 AM72 °FClear.7 mph57%29.77 "Hg10 mi
4:00 AM72 °FPassing clouds.3 mph57%29.77 "HgN/A
3:30 AM72 °FPassing clouds.3 mph57%29.77 "HgN/A
3:00 AM72 °FClear.6 mph61%29.77 "Hg10 mi
2:21 AM73 °FClear.10 mph53%29.77 "Hg10 mi
2:00 AM73 °FClear.8 mph53%29.77 "Hg10 mi
1:30 AM72 °FClear.8 mph57%29.77 "Hg10 mi
1:00 AM73 °FClear.8 mph53%29.77 "Hg10 mi
12:30 AM73 °FClear.10 mph53%29.77 "Hg10 mi
12:00 AM72 °FClear.12 mph61%29.77 "Hg10 mi
11:30 PM
Jul 30
73 °FClear.8 mph57%29.77 "Hg10 mi
11:00 PM73 °FClear.9 mph57%29.77 "Hg10 mi
10:30 PM73 °FClear.6 mph57%29.77 "Hg10 mi
10:00 PM73 °FPassing clouds.3 mph57%29.77 "HgN/A
9:30 PM73 °FSunny.2 mph69%29.77 "Hg10 mi
9:00 PM73 °FPassing clouds.No wind69%29.77 "HgN/A
8:30 PM73 °FPassing clouds.2 mph65%29.74 "HgN/A
8:00 PM75 °FPassing clouds.3 mph65%29.74 "HgN/A
7:30 PM75 °FScattered clouds.6 mph65%29.74 "HgN/A
7:00 PM75 °FPassing clouds.7 mph65%29.74 "HgN/A
6:30 PM75 °FPassing clouds.10 mph65%29.74 "HgN/A
6:00 PM75 °FPassing clouds.12 mph61%29.74 "HgN/A
5:30 PM77 °FPassing clouds.13 mph57%29.74 "HgN/A
5:00 PM77 °FPassing clouds.13 mph54%29.74 "HgN/A
4:30 PM77 °FPassing clouds.13 mph54%29.71 "HgN/A
4:00 PM79 °FPassing clouds.14 mph54%29.71 "HgN/A
3:30 PM77 °FPassing clouds.12 mph54%29.71 "HgN/A
3:00 PM77 °FPassing clouds.10 mph54%29.68 "HgN/A
2:30 PM77 °FPassing clouds.8 mph54%29.68 "HgN/A
2:00 PM77 °FPassing clouds.7 mph54%29.68 "HgN/A
1:30 PM77 °FPassing clouds.7 mph51%29.68 "HgN/A
1:00 PM77 °FPassing clouds.6 mph47%29.68 "HgN/A
12:30 PM75 °FPassing clouds.7 mph57%29.68 "HgN/A
12:00 PM75 °FPassing clouds.7 mph57%29.68 "HgN/A
Weather by CustomWeather, © 2014

See weather overviewHow to use our weather pages